GW4025 Weather Reports


time (UTC)temp
C
wind
direction
speed
KPH
gust
KPH
rain 1hr
cm
rain 24hr
cm
rain mn
cm
humidity
%
barometer
mb
20260506233603 11 0 0.0 0.0 0.00 0.53 0.00 85 1003.8
20260506232703 11 335 0.0 4.8 0.00 0.53 0.00 85 1003.6
20260506231803 11 357 0.0 3.2 0.00 0.53 0.00 84 1003.7
20260506230903 11 349 0.0 4.8 0.00 0.53 0.00 82 1003.8
20260506230003 12 37 0.0 4.8 0.00 0.53 0.00 82 1003.4
20260506225403 11 357 1.6 9.7 0.00 0.53 0.00 82 1003.6
20260506224503 12 357 1.6 6.4 0.00 0.53 0.00 82 1003.5
20260506223603 12 355 1.6 6.4 0.00 0.53 0.00 83 1003.6
20260506222919 12 355 1.6 6.4 0.00 0.53 0.00 83 1003.4
20260506221805 12 353 0.0 4.8 0.00 0.53 0.00 83 1003.4
20260506220903 13 6 0.0 1.6 0.00 0.53 0.00 83 1003.5
20260506220005 13 354 1.6 4.8 0.00 0.53 0.00 83 1003.3
20260506215403 13 340 1.6 4.8 0.00 0.53 0.53 83 1003.2
20260506214503 12 5 0.0 3.2 0.00 0.53 0.53 85 1003.2
20260506213605 13 295 0.0 1.6 0.00 0.53 0.53 85 1002.9
20260506212703 13 66 0.0 1.6 0.00 0.53 0.53 84 1002.8
20260506211803 13 74 0.0 6.4 0.00 0.53 0.53 84 1002.9
20260506210903 13 73 0.0 1.6 0.00 0.53 0.53 84 1002.7
20260506210004 13 355 0.0 1.6 0.00 0.53 0.53 84 1002.5
20260506205403 13 358 0.0 1.6 0.00 0.53 0.53 83 1002.7
20260506204503 13 330 0.0 3.2 0.00 0.53 0.53 83 1002.6
20260506203603 13 38 0.0 3.2 0.00 0.53 0.53 82 1002.4
20260506202703 13 0 0.0 0.0 0.00 0.53 0.53 82 1002.2
20260506201805 13 46 0.0 1.6 0.00 0.53 0.53 81 1002.4
20260506200903 14 353 0.0 3.2 0.00 0.53 0.53 78 1002.1
20260506200005 14 212 0.0 3.2 0.00 0.53 0.53 77 1001.9
20260506195619 14 255 0.0 4.8 0.00 0.53 0.53 77 1002.0
20260506194506 14 358 0.0 1.6 0.00 0.53 0.53 81 1001.6
20260506193605 14 357 0.0 3.2 0.00 0.53 0.53 79 1001.2
20260506192703 15 323 0.0 3.2 0.00 0.53 0.53 78 1001.0
20260506191803 14 38 0.0 3.2 0.00 0.53 0.53 79 1000.9
20260506190903 15 246 0.0 1.6 0.00 0.53 0.53 78 1000.6
20260506185403 15 184 0.0 1.6 0.00 0.53 0.53 74 1000.5
20260506184503 16 0 0.0 0.0 0.00 0.53 0.53 75 1000.2
20260506183604 16 167 0.0 1.6 0.00 0.53 0.53 75 1000.1
20260506182704 15 346 0.0 1.6 0.00 0.53 0.53 80 999.8
20260506182019 16 49 0.0 1.6 0.00 0.53 0.53 78 999.6
20260506180903 17 304 0.0 1.6 0.00 0.53 0.53 75 999.6
20260506180217 17 263 0.0 3.2 0.00 0.53 0.53 69 999.3
20260506175403 17 107 0.0 6.4 0.00 0.53 0.53 66 999.0
20260506174504 17 345 0.0 1.6 0.00 0.53 0.53 65 999.0
20260506173603 17 338 0.0 3.2 0.00 0.53 0.53 67 998.9
20260506172705 17 354 0.0 3.2 0.00 0.53 0.53 67 998.6
20260506172018 17 351 0.0 3.2 0.00 0.53 0.53 71 998.6
20260506171118 18 347 0.0 6.4 0.00 0.53 0.53 70 998.6
20260506170217 18 350 1.6 6.4 0.00 0.53 0.53 64 998.5
20260506165403 18 360 0.0 3.2 0.00 0.53 0.53 68 998.6
20260506164503 18 0 0.0 0.0 0.00 0.53 0.53 67 998.5
20260506163603 18 50 0.0 1.6 0.00 0.53 0.53 68 998.6
20260506162703 18 119 0.0 3.2 0.00 0.53 0.53 66 998.4
20260506161803 18 294 0.0 4.8 0.00 0.53 0.53 66 998.6
20260506161117 19 271 1.6 4.8 0.00 0.53 0.53 66 998.4
20260506160217 18 68 0.0 3.2 0.00 0.53 0.53 66 998.3
20260506155403 19 90 0.0 9.7 0.00 0.53 0.53 65 998.5
20260506154505 19 263 1.6 4.8 0.00 0.53 0.53 62 998.3
20260506153603 19 251 0.0 4.8 0.00 0.53 0.53 63 998.3
20260506152703 19 0 0.0 0.0 0.00 0.53 0.53 64 998.4
20260506151803 18 165 1.6 6.4 0.00 0.53 0.53 63 998.4
20260506150903 19 292 0.0 3.2 0.00 0.53 0.53 62 998.3
20260506150003 18 206 0.0 4.8 0.00 0.53 0.53 63 998.5
20260506145403 18 201 0.0 4.8 0.00 0.53 0.53 66 998.3
20260506144503 18 155 0.0 1.6 0.00 0.53 0.53 62 998.5
20260506143605 20 222 0.0 4.8 0.00 0.53 0.53 60 998.5
20260506142703 19 165 0.0 1.6 0.00 0.53 0.53 62 998.5
20260506142017 18 0 0.0 0.0 0.00 0.53 0.53 65 998.4
20260506141117 19 344 0.0 1.6 0.00 0.53 0.53 65 998.6
20260506140004 18 0 0.0 0.0 0.00 0.53 0.53 63 998.8
20260506135620 18 156 0.0 4.8 0.00 0.53 0.53 62 998.8
20260506134503 18 201 1.6 9.7 0.00 0.53 0.53 61 998.9
20260506133603 19 194 0.0 4.8 0.00 0.53 0.53 62 998.9
20260506132703 17 0 0.0 0.0 0.00 0.53 0.53 71 999.0
20260506132017 17 0 0.0 0.0 0.00 0.53 0.53 69 999.1
20260506130903 17 172 0.0 1.6 0.00 0.53 0.53 68 999.2
20260506130004 18 211 1.6 9.7 0.00 0.53 0.53 65 999.1
20260506125619 18 198 0.0 9.7 0.00 0.53 0.53 63 999.2
20260506124503 19 172 1.6 11.3 0.00 0.53 0.53 61 999.0
20260506123818 18 211 1.6 11.3 0.00 0.53 0.53 62 998.9
20260506122703 18 160 1.6 11.3 0.00 0.53 0.53 65 999.0
20260506121803 18 155 0.0 9.7 0.00 0.53 0.53 66 998.9
20260506120903 18 168 1.6 6.4 0.00 0.53 0.53 67 999.0
20260506120003 18 179 1.6 9.7 0.00 0.53 0.53 67 999.1
20260506115403 17 177 3.2 11.3 0.00 0.53 0.53 68 999.0
20260506114503 18 184 1.6 9.7 0.00 0.53 0.53 67 999.0
20260506113604 18 196 1.6 11.3 0.00 0.53 0.53 67 999.3
20260506112703 18 358 0.0 3.2 0.00 0.53 0.53 68 999.1
20260506111803 18 108 0.0 6.4 0.00 0.53 0.53 67 999.0
20260506110905 17 120 0.0 6.4 0.00 0.53 0.53 70 999.2
20260506110003 17 109 0.0 6.4 0.00 0.53 0.53 70 999.2
20260506105405 16 124 0.0 1.6 0.00 0.53 0.53 72 999.3
20260506104503 16 151 0.0 1.6 0.00 0.53 0.53 72 999.5
20260506103603 16 220 0.0 4.8 0.00 0.53 0.53 73 999.7
20260506102703 16 355 0.0 4.8 0.00 0.53 0.53 72 999.9
20260506101805 16 137 0.0 6.4 0.00 0.53 0.53 76 999.8
20260506100903 16 173 0.0 3.2 0.00 0.53 0.53 75 999.9
20260506100004 15 160 0.0 1.6 0.00 0.53 0.53 77 999.9
20260506095404 16 180 0.0 9.7 0.00 0.53 0.53 77 1000.0
20260506094717 15 172 1.6 9.7 0.00 0.53 0.53 78 1000.0
20260506093817 15 179 0.0 1.6 0.00 0.53 0.53 80 1000.0
20260506092705 14 206 0.0 4.8 0.00 0.53 0.53 81 1000.1
20260506091803 14 144 0.0 1.6 0.00 0.53 0.53 81 1000.2
20260506090905 13 0 0.0 0.0 0.00 0.53 0.53 80 1000.1
20260506090003 14 0 0.0 0.0 0.00 0.53 0.53 82 1000.1
20260506085403 13 221 0.0 3.2 0.00 0.53 0.53 82 999.9
20260506084503 13 0 0.0 0.0 0.00 0.53 0.53 82 999.9
20260506083603 13 0 0.0 0.0 0.00 0.53 0.53 83 1000.1
20260506082703 13 0 0.0 0.0 0.00 0.53 0.53 84 999.9
20260506081803 13 0 0.0 0.0 0.00 0.53 0.53 84 999.8
20260506080903 13 0 0.0 0.0 0.00 0.53 0.53 84 999.8
20260506072919 13 0 0.0 0.0 0.00 0.53 0.53 86 1000.1
20260506072019 13 0 0.0 0.0 0.00 0.53 0.53 84 999.9
20260506070903 13 0 0.0 0.0 0.00 0.53 0.53 87 999.9
20260506061803 11 342 0.0 1.6 0.00 0.53 0.53 95 1000.6
20260506061118 11 2 0.0 1.6 0.00 0.53 0.53 95 1000.5
20260506050903 10 0 0.0 0.0 0.00 0.53 0.53 95 1001.0
20260506044503 10 0 0.0 0.0 0.00 0.53 0.53 95 1001.0
20260506043603 10 0 0.0 0.0 0.05 0.53 0.53 95 1001.3
20260506042703 10 0 0.0 0.0 0.08 0.53 0.53 95 1001.1
20260506041803 10 0 0.0 0.0 0.13 0.53 0.53 95 1001.1
20260506041122 10 0 0.0 0.0 0.18 0.53 0.53 95 1001.3
20260506040004 10 1 0.0 1.6 0.20 0.56 0.53 95 1001.4
20260506035405 10 0 0.0 0.0 0.23 0.56 0.53 95 1001.4
20260506034719 10 0 0.0 0.0 0.28 0.58 0.53 95 1001.4
20260506033605 10 331 0.0 1.6 0.30 0.64 0.48 95 1001.4
20260506032918 10 331 0.0 1.6 0.30 0.69 0.46 95 1001.1
20260506031805 10 0 0.0 0.0 0.33 0.81 0.41 95 1001.6
20260506031117 10 0 0.0 0.0 0.28 0.86 0.36 95 1002.0
20260506030003 10 0 0.0 0.0 0.25 0.99 0.33 95 1001.8
20260506025405 10 0 0.0 0.0 0.23 1.02 0.30 95 1001.9
20260506024503 10 0 0.0 0.0 0.18 1.04 0.25 95 1002.0
20260506023603 10 0 0.0 0.0 0.10 1.04 0.20 95 1002.0
20260506022703 10 0 0.0 0.0 0.08 1.07 0.15 95 1002.1
20260506021803 10 0 0.0 0.0 0.00 1.04 0.08 95 1002.2
20260506020903 10 0 0.0 0.0 0.00 1.07 0.08 95 1002.3
20260506020005 10 0 0.0 0.0 0.00 1.12 0.08 95 1002.4
20260506015403 10 0 0.0 0.0 0.00 1.12 0.08 95 1002.3
20260506014718 10 0 0.0 0.0 0.00 1.17 0.08 95 1002.2
20260506013603 10 0 0.0 0.0 0.00 1.22 0.08 94 1002.4
20260506012703 10 0 0.0 0.0 0.03 1.24 0.08 94 1002.6
20260506011803 10 0 0.0 0.0 0.03 1.24 0.08 94 1002.7
20260506010903 10 0 0.0 0.0 0.03 1.24 0.08 94 1002.5
20260506010219 10 0 0.0 0.0 0.03 1.24 0.08 94 1002.7
20260506005403 10 0 0.0 0.0 0.05 1.24 0.08 94 1002.9
20260506004505 10 0 0.0 0.0 0.05 1.24 0.08 94 1003.1
20260506003603 10 0 0.0 0.0 0.08 1.24 0.08 94 1002.9
20260506002703 10 0 0.0 0.0 0.05 1.22 0.05 94 1003.2
20260506002016 10 0 0.0 0.0 0.05 1.22 0.05 94 1003.5
20260506000903 11 0 0.0 0.0 0.05 1.22 0.05 94 1003.8
20260506000004 10 0 0.0 0.0 0.03 1.19 0.03 94 1003.8
20260505235403 10 0 0.0 0.0 0.03 1.19 0.03 93 1004.1
20260505234503 11 0 0.0 0.0 0.03 1.19 0.03 93 1004.1